Погода в Мокоа

Колумбия     1°08′52″N   76°38′53″W
темп.,
°C
ветер,
м/с
пор.,
м/с
влажн.,
%
обл.,
%
осадки,
мм/ч
давл.,
гПа
погр.,
м
18 января, вт
вт1801:00+11зсз219691 0.1 101730
04:00+11зсз229565 0.0 101737
07:00+12зсз21907 0.0 101842
10:00+19вюв226519 0.0 10181101
13:00+19юв227683 1.0 1015928
16:00+18юв227557 1.4 1013865
19:00+13з119874 2.8 101625
22:00+12зсз219662 0.8 101928
19 января, ср
ср1901:00+12зсз219625 1.0 101731
04:00+12зсз219687 0.1 101727
07:00+13зсз119470 0.1 101886
10:00+17юв238218 1.1 1018676
13:00+18юв337748 2.9 1015902
16:00
19:00+13зсз119549 3.9 101627
22:00+13сз119798 0.8 101848
20 января, чт
чт2001:00
04:00+12зсз219670 0.1 101629
07:00+14з119289 0.1 101750
10:00+16юв228691 0.7 1018470
13:00+17юв338989 3.7 1015668
16:00+16юв229385 2.8 1013503
19:00+14юз009954 4.0 101528
22:00+14зсз119783 0.4 101821
21 января, пт
пт2101:00+13зсз119685 0.6 101627
04:00+13зсз119446 0.1 101417
07:00+13з119476 0.1 101626
10:00+18юв227846 0.5 1016793
13:00+18юв228859 2.6 1014641
16:00+17юв229067 2.8 1011534
19:00+15ююз119349 3.6 101414
22:00+14зсз1192100 0.1 101721
22 января, сб
сб2201:00+12зсз219434 0.2 101632
04:00+13зсз119564 0.4 101425
07:00+13з119525 0.6 101625
10:00+17юв228251 0.6 1017741
13:00+18вюв228394 2.6 1013827
16:00+18вюв218232 1.2 1010698
19:00+15вюв0195100 1.6 101337
22:00+15з0094100 0.3 101617